Weather observations for the past three days for
Garrison
Imperial (Metric)
Date Time (cdt) Wind (mph) Vis. (mi.) Weather Sky Cond. Temperature (ºF) Relative Humidity Wind Chill (°F) Heat Index (°F) Pressure Precipitation (in)
Air Dwpt 6 hour altimeter (in) sea level (mb) 1 hr 3 hr 6 hr
Max. Min.
22 19:54 W 7 0.00 NULL NULL 75 57.9 55% 78 29.89 1011.4
22 18:54 W 6 0.00 NULL NULL 75.9 59 77 66.9 56% 78 29.89 1011.6
22 17:54 NW 5 0.00 NULL NULL 75 61 62% 77 29.89 1011.7
22 16:54 NW 6 0.00 NULL NULL 75 60.1 60% 77 29.9 1012.0
22 15:54 NW 8 0.00 NULL NULL 73.9 59 60% 29.91 1012.4
22 14:54 NW 10 0.00 NULL NULL 72 62.1 71% 29.92 1012.7
22 13:54 NW 7 0.00 NULL NULL 72 61 68% 29.93 1012.9
22 12:54 NW 9 0.00 NULL NULL 66 61 69.1 61 84% 29.93 1013.4
22 07:54 Calm 0.00 NULL NULL 62.1 60.1 93% 29.94 1013.8
22 06:54 E 5 0.00 NULL NULL 61 60.1 61 60.1 97% 29.94 1013.8
22 05:54 E 3 0.00 NULL NULL 60.1 60.1 100% 29.95 1014.0
22 04:54 E 7 0.00 NULL NULL 61 60.1 97% 29.95 1013.9
22 03:54 E 5 0.00 NULL NULL 61 60.1 97% 29.97 1014.8
22 02:54 E 6 0.00 NULL NULL 61 60.1 97% 29.98 1015.0
22 01:54 E 8 0.00 NULL NULL 61 60.1 97% 29.99 1015.3
22 00:54 E 9 0.00 NULL NULL 60.1 60.1 64 60.1 100% 30 1015.7
21 23:54 E 6 0.00 NULL NULL 61 60.1 97% 30.02 1016.3
21 22:54 E 7 0.00 NULL NULL 62.1 60.1 93% 30.03 1016.7
21 21:54 E 9 0.00 NULL NULL 63 60.1 90% 30.01 1016.2
21 20:54 E 8 0.00 NULL NULL 63 60.1 90% 30.02 1016.5
21 19:54 E 9 0.00 NULL NULL 63 60.1 90% 30.03 1016.8
21 18:54 SE 10 0.00 NULL NULL 63 61 64.9 61 93% 30.02 1016.7 0.17
21 17:54 SE 15 0.00 NULL NULL 64 61 90% 30.04 1017.2
21 16:54 E 14 0.00 NULL NULL 62.1 60.1 93% 30.04 1017.4 0.06
21 15:54 E 13 0.00 NULL NULL 61 60.1 97% 30.07 1018.5 0.06 0.11
21 14:54 E 8 0.00 NULL NULL 62.1 60.1 93% 30.1 1019.3 0.04
21 13:54 NE 9 0.00 NULL NULL 63 59 87% 30.11 1019.7 0.01
21 12:54 E 14 0.00 NULL NULL 63 57.9 64.9 57.9 84% 30.12 1020.1
21 11:54 E 12 0.00 NULL NULL 64 57.9 81% 30.12 1020.1
21 10:54 E 9 0.00 NULL NULL 63 57.9 84% 30.14 1020.7
21 09:54 E 15 0.00 NULL NULL 62.1 57 84% 30.15 1020.8
21 08:54 E 12 0.00 NULL NULL 61 57 87% 30.15 1020.9
21 07:54 E 9 0.00 NULL NULL 59 57 93% 30.17 1021.4
21 06:54 E 8 0.00 NULL NULL 57.9 55.9 57.9 54 93% 30.17 1021.5
21 05:54 E 8 0.00 NULL NULL 55.9 54 93% 30.18 1021.8
21 04:54 E 7 0.00 NULL NULL 55.9 54 93% 30.18 1021.7
21 03:54 E 7 0.00 NULL NULL 55 54 96% 30.19 1022.2
21 02:54 NE 5 0.00 NULL NULL 55.9 54 93% 30.21 1022.9
21 01:54 E 5 0.00 NULL NULL 55 54 96% 30.21 1022.8
21 00:54 SE 5 0.00 NULL NULL 55 54 70 55 96% 30.22 1023.1
20 23:54 SE 3 0.00 NULL NULL 57.9 55.9 93% 30.22 1023.1
20 22:54 SE 5 0.00 NULL NULL 59 55.9 90% 30.21 1023.0
20 21:54 Calm 0.00 NULL NULL 61 55.9 84% 30.2 1022.7
20 20:54 SE 7 0.00 NULL NULL 64.9 59 81% 30.2 1022.5
20 19:54 S 9 0.00 NULL NULL 68 57.9 70% 30.2 1022.7
20 18:54 S 14 0.00 NULL NULL 70 57.9 73 69.1 66% 30.2 1022.8
20 17:54 S 12 0.00 NULL NULL 71.1 57 61% 30.21 1023.2
20 16:54 S 12 0.00 NULL NULL 72 57.9 61% 30.22 1023.3
20 15:54 S 8 0.00 NULL NULL 72 57 59% 30.22 1023.4
20 14:54 S 13 0.00 NULL NULL 71.1 57 61% 30.23 1023.7
20 13:54 S 13 0.00 NULL NULL 70 57.9 66% 30.24 1024.0
20 12:54 S 12 0.00 NULL NULL 69.1 59 69.1 52 70% 30.25 1024.2
20 11:54 S 10 0.00 NULL NULL 66.9 59 76% 30.25 1024.4
20 10:54 S 10 0.00 NULL NULL 64.9 57 76% 30.26 1024.9
20 09:54 S 8 0.00 NULL NULL 61 54 78% 30.26 1024.8
20 08:54 S 10 0.00 NULL NULL 57.9 52 81% 30.25 1024.7
20 07:54 SE 8 0.00 NULL NULL 55.9 52 87% 30.25 1024.5
20 06:54 SE 7 0.00 NULL NULL 52 50 53.1 48 93% 30.25 1024.5
20 05:54 E 5 0.00 NULL NULL 48.9 46.9 93% 48 30.24 1024.3
20 04:54 SE 7 0.00 NULL NULL 51.1 48.9 92% 30.24 1024.2
20 03:54 SE 7 0.00 NULL NULL 52 50 93% 30.24 1024.3
20 02:54 SE 7 0.00 NULL NULL 50 48 93% 48 30.25 1024.5
20 01:54 SE 9 0.00 NULL NULL 51.1 48.9 92% 30.24 1024.5
20 00:54 SE 8 0.00 NULL NULL 52 48 64 50 86% 30.25 1024.7
19 23:54 Calm 0.00 NULL NULL 55.9 48.9 77% 30.25 1024.6
19 22:54 SE 3 0.00 NULL NULL 55 50 83% 30.25 1024.7
19 21:54 SE 8 0.00 NULL NULL 57.9 50 75% 30.23 1024.1
19 20:54 SE 9 0.00 NULL NULL 60.1 48 65% 30.22 1023.8
Date Time (cdt) Wind (mph) Vis. (mi.) Weather Sky Cond. Air Dwpt Max. Min. Relative Humidity Wind Chill (°F) Heat Index (°F) altimeter (in) sea level (mb) 1 hr 3 hr 6 hr
6 hour
Temperature (ºF) Pressure Precipitation (in)